• In Netherlands
  • List of Countries
  • For 7 days
  • Water Temperature
  • Satellite Maps
  • Weather Map
  • Weather Widgets
  • user-avatar
    Login

    Hourly Weather Saidpur

    Today, 24 March, Friday

    Time Temperature Precipitation Wind Pressure Humidity
    00:00 +26°C° 0 mm 2 mps 755 mmHg 57%
    01:00 +26°C° 0 mm 2 mps 754 mmHg 58%
    02:00 +25°C° 0 mm 2 mps 754 mmHg 59%
    03:00 +25°C° 0 mm 2 mps 754 mmHg 59%
    04:00 +25°C° 0 mm 1 mps 754 mmHg 61%
    05:00 +24°C° 0 mm 1 mps 754 mmHg 63%
    06:00 +24°C° 0 mm 1 mps 754 mmHg 69%
    07:00 +26°C° 0 mm 1 mps 754 mmHg 62%
    08:00 +28°C° 0 mm 2 mps 755 mmHg 55%
    09:00 +30°C° 0 mm 2 mps 755 mmHg 48%
    10:00 +32°C° 0 mm 2 mps 755 mmHg 43%
    11:00 +35°C° 0 mm 2 mps 755 mmHg 38%
    12:00 +37°C° 0 mm 2 mps 755 mmHg 34%
    13:00 +36°C° 0 mm 2 mps 754 mmHg 34%
    14:00 +36°C° 0 mm 2 mps 753 mmHg 35%
    15:00 +35°C° 0 mm 1 mps 752 mmHg 35%
    16:00 +34°C° 0 mm 1 mps 752 mmHg 36%
    17:00 +33°C° 0 mm 1 mps 752 mmHg 38%
    18:00 +33°C° 0 mm 1 mps 752 mmHg 40%
    19:00 +31°C° 0 mm 2 mps 752 mmHg 44%
    20:00 +30°C° 0 mm 2 mps 753 mmHg 47%
    21:00 +29°C° 0 mm 2 mps 753 mmHg 51%
    22:00 +28°C° 0 mm 2 mps 753 mmHg 52%
    23:00 +28°C° 0 mm 2 mps 753 mmHg 54%

    Tomorrow, 25 March, Saturday

    Time Temperature Precipitation Wind Pressure Humidity
    00:00 +27°C° 0 mm 2 mps 753 mmHg 55%
    01:00 +27°C° 0 mm 2 mps 753 mmHg 57%
    02:00 +26°C° 0 mm 2 mps 753 mmHg 60%
    03:00 +25°C° 0 mm 2 mps 752 mmHg 62%
    04:00 +25°C° 0 mm 2 mps 753 mmHg 66%
    05:00 +24°C° 0 mm 2 mps 753 mmHg 69%
    06:00 +24°C° 0 mm 2 mps 753 mmHg 73%
    07:00 +26°C° 0 mm 2 mps 753 mmHg 66%
    08:00 +28°C° 0 mm 2 mps 754 mmHg 59%
    09:00 +30°C° 0 mm 2 mps 754 mmHg 52%
    10:00 +32°C° 0 mm 2 mps 754 mmHg 46%
    11:00 +35°C° 0 mm 2 mps 754 mmHg 41%
    12:00 +38°C° 0 mm 2 mps 753 mmHg 35%
    13:00 +38°C° 0 mm 2 mps 752 mmHg 31%
    14:00 +39°C° 0 mm 2 mps 752 mmHg 28%
    15:00 +40°C° 0 mm 2 mps 751 mmHg 24%
    16:00 +38°C° 0 mm 2 mps 751 mmHg 28%
    17:00 +37°C° 0 mm 2 mps 751 mmHg 32%
    18:00 +35°C° 0 mm 2 mps 751 mmHg 36%
    19:00 +34°C° 0 mm 3 mps 751 mmHg 43%
    20:00 +31°C° 0 mm 3 mps 752 mmHg 49%
    21:00 +30°C° 0 mm 4 mps 753 mmHg 56%
    22:00 +29°C° 0 mm 4 mps 754 mmHg 58%
    23:00 +29°C° 0 mm 4 mps 754 mmHg 61%

    Day after tomorrow, 26 March, Sunday

    Time Temperature Precipitation Wind Pressure Humidity
    00:00 +28°C° 0 mm 4 mps 754 mmHg 63%
    01:00 +27°C° 0 mm 3 mps 754 mmHg 65%
    02:00 +27°C° 0 mm 3 mps 753 mmHg 68%
    03:00 +26°C° 0 mm 3 mps 753 mmHg 71%
    04:00 +26°C° 0 mm 3 mps 753 mmHg 74%
    05:00 +25°C° 0 mm 3 mps 754 mmHg 77%
    06:00 +25°C° 0 mm 3 mps 754 mmHg 80%
    07:00 +26°C° 0 mm 3 mps 755 mmHg 75%
    08:00 +28°C° 0 mm 3 mps 755 mmHg 70%
    09:00 +29°C° 0 mm 3 mps 756 mmHg 64%
    10:00 +31°C° 0 mm 3 mps 756 mmHg 60%
    11:00 +33°C° 0 mm 3 mps 755 mmHg 55%
    12:00 +34°C° 0 mm 3 mps 755 mmHg 50%
    13:00 +35°C° 0 mm 3 mps 754 mmHg 47%
    14:00 +36°C° 0 mm 2 mps 753 mmHg 44%
    15:00 +37°C° 0 mm 2 mps 752 mmHg 40%
    16:00 +36°C° 0 mm 2 mps 752 mmHg 43%
    17:00 +35°C° 0 mm 2 mps 752 mmHg 45%
    18:00 +34°C° 0 mm 2 mps 752 mmHg 48%
    19:00 +32°C° 0 mm 2 mps 753 mmHg 51%
    20:00 +31°C° 0 mm 3 mps 753 mmHg 54%
    21:00 +30°C° 0 mm 3 mps 754 mmHg 56%
    22:00 +29°C° 2.1 mm 3 mps 754 mmHg 63%
    23:00 +27°C° 2.1 mm 3 mps 754 mmHg 70%

    27 March, Monday

    Time Temperature Precipitation Wind Pressure Humidity
    00:00 +26°C° 2.1 mm 3 mps 754 mmHg 77%
    01:00 +26°C° 0.1 mm 3 mps 754 mmHg 78%
    02:00 +25°C° 0.1 mm 3 mps 754 mmHg 79%
    03:00 +25°C° 0.1 mm 3 mps 753 mmHg 81%
    04:00 +25°C° 0 mm 3 mps 754 mmHg 83%
    05:00 +25°C° 0 mm 3 mps 754 mmHg 85%
    06:00 +24°C° 0 mm 3 mps 754 mmHg 88%
    07:00 +25°C° 0.2 mm 3 mps 755 mmHg 84%
    08:00 +26°C° 0.2 mm 3 mps 756 mmHg 80%
    09:00 +27°C° 0.2 mm 4 mps 756 mmHg 76%
    10:00 +28°C° 0.1 mm 4 mps 756 mmHg 71%
    11:00 +29°C° 0.1 mm 3 mps 756 mmHg 67%
    12:00 +31°C° 0.1 mm 3 mps 756 mmHg 63%
    13:00 +31°C° 0 mm 3 mps 755 mmHg 60%
    14:00 +33°C° 0 mm 3 mps 754 mmHg 57%
    15:00 +34°C° 0 mm 3 mps 753 mmHg 54%
    16:00 +33°C° 0 mm 3 mps 753 mmHg 56%
    17:00 +32°C° 0 mm 2 mps 753 mmHg 58%
    18:00 +31°C° 0 mm 2 mps 753 mmHg 61%
    19:00 +30°C° 0 mm 2 mps 754 mmHg 64%
    20:00 +29°C° 0 mm 3 mps 755 mmHg 67%
    21:00 +28°C° 0 mm 3 mps 755 mmHg 70%
    22:00 +27°C° 0.1 mm 2 mps 755 mmHg 71%
    23:00 +27°C° 0.1 mm 2 mps 755 mmHg 73%

    28 March, Tuesday

    Time Temperature Precipitation Wind Pressure Humidity
    00:00 +26°C° 0.1 mm 2 mps 755 mmHg 74%
    01:00 +26°C° 0 mm 2 mps 755 mmHg 74%
    02:00 +25°C° 0 mm 2 mps 754 mmHg 74%
    03:00 +25°C° 0 mm 2 mps 754 mmHg 74%
    04:00 +24°C° 0.1 mm 3 mps 754 mmHg 75%
    05:00 +24°C° 0.1 mm 3 mps 754 mmHg 76%
    06:00 +24°C° 0.1 mm 3 mps 755 mmHg 76%
    07:00 +25°C° 0.2 mm 3 mps 755 mmHg 72%
    08:00 +27°C° 0.2 mm 3 mps 756 mmHg 68%
    09:00 +28°C° 0.2 mm 3 mps 756 mmHg 63%
    10:00 +30°C° 0.1 mm 4 mps 756 mmHg 60%
    11:00 +32°C° 0.1 mm 4 mps 756 mmHg 57%
    12:00 +34°C° 0.1 mm 4 mps 755 mmHg 54%
    13:00 +34°C° 0 mm 4 mps 754 mmHg 53%
    14:00 +34°C° 0 mm 4 mps 753 mmHg 52%
    15:00 +35°C° 0 mm 3 mps 752 mmHg 51%
    16:00 +34°C° 0 mm 3 mps 752 mmHg 54%
    17:00 +32°C° 0 mm 2 mps 752 mmHg 57%
    18:00 +31°C° 0 mm 2 mps 752 mmHg 60%
    19:00 +30°C° 0.1 mm 2 mps 753 mmHg 64%
    20:00 +29°C° 0.1 mm 2 mps 754 mmHg 69%
    21:00 +28°C° 0.1 mm 2 mps 754 mmHg 73%
    22:00 +28°C° 1.1 mm 2 mps 754 mmHg 77%
    23:00 +27°C° 1.1 mm 2 mps 754 mmHg 80%

    29 March, Wednesday

    Time Temperature Precipitation Wind Pressure Humidity
    00:00 +26°C° 1.1 mm 2 mps 754 mmHg 84%
    01:00 +26°C° 0.6 mm 2 mps 754 mmHg 86%
    02:00 +25°C° 0.6 mm 2 mps 754 mmHg 88%
    03:00 +25°C° 0.6 mm 2 mps 754 mmHg 89%
    04:00 +25°C° 0.4 mm 2 mps 754 mmHg 91%
    05:00 +25°C° 0.4 mm 3 mps 754 mmHg 92%
    06:00 +24°C° 0.4 mm 3 mps 754 mmHg 93%
    07:00 +25°C° 0.6 mm 3 mps 755 mmHg 90%
    08:00 +26°C° 0.6 mm 3 mps 756 mmHg 87%
    09:00 +27°C° 0.6 mm 3 mps 756 mmHg 83%
    10:00 +29°C° 0.3 mm 3 mps 756 mmHg 78%
    11:00 +30°C° 0.3 mm 3 mps 756 mmHg 72%
    12:00 +31°C° 0.3 mm 3 mps 756 mmHg 67%
    13:00 +31°C° 0.9 mm 3 mps 755 mmHg 64%
    14:00 +33°C° 0.9 mm 3 mps 754 mmHg 62%
    15:00 +33°C° 0.9 mm 3 mps 753 mmHg 60%
    16:00 +31°C° 0 mm 3 mps 753 mmHg 64%
    17:00 +31°C° 0 mm 2 mps 753 mmHg 68%
    18:00 +30°C° 0 mm 2 mps 753 mmHg 71%
    19:00 +29°C° 0 mm 2 mps 754 mmHg 75%
    20:00 +28°C° 0 mm 2 mps 755 mmHg 78%
    21:00 +27°C° 0 mm 1 mps 755 mmHg 82%
    22:00 +27°C° 0.7 mm 1 mps 755 mmHg 83%
    23:00 +27°C° 0.7 mm 1 mps 755 mmHg 84%
    Show more